Location: Derby
(52.9213°N, 1.4761°W)
Time: 18:34:11
(UTC+01:00)

Tiros 1 - Pass Details

Date: 24 May 2025
Orbit: 620 x 651 km, 48.4° (Epoch: 13 June)

Event Time Altitude Azimuth Distance (km) Brightness Sun altitude
Rises 21:44:03 0° 275° (W) 2,908 11.4 -4.5°
Reaches altitude 10° 21:46:38 10° 263° (W) 2,003 10.3 -4.8°
Maximum altitude 21:50:28 26° 207° (SSW) 1,232 8.4 -5.2°
Drops below altitude 10° 21:54:19 10° 150° (SSE) 2,014 9.1 -5.6°
Enters shadow 21:55:08 - 145° (SE) 2,283 9.3 -5.7°
Sets 21:56:56 0° 138° (SE) 2,925 - -5.9°
